Wind_Speed
12 13 11 10 10 9 9 9 8 8 7 6 6 6 6 6 7 7 7 7 6 6 6 5 5 4 3 3 2 1 0 1 2 3 3 4 4 4 5 5 4 3 3 4 2 3 3 2 5 5 6 8 8 8 6 5 4 4 5 6 6 6 5
13 14 13 12 11 10 9 8 8 8 8 7 7 7 7 7 7 7 7 7 7 6 6 6 5 5 4 3 3 3 2 2 1 0 1 2 3 3 5 5 4 3 4 4 4 5 5 3 4 5 6 8 10 11 8 7 7 6 7 9 9 8 7
14 14 13 12 11 10 9 9 8 8 8 8 8 7 8 7 7 6 6 6 7 7 6 6 6 6 5 5 5 4 3 2 2 2 2 1 0 1 3 4 4 3 3 3 3 4 3 2 2 5 5 6 8 10 9 9 8 8 8 10 10 9 8
14 14 14 13 11 10 10 9 8 8 8 8 8 8 7 7 7 7 7 7 8 7 7 7 7 7 7 7 7 6 5 4 4 4 3 3 2 2 3 3 3 2 2 2 3 3 2 1 3 5 7 8 9 9 9 9 9 9 9 10 10 10 10
14 13 14 13 12 11 10 10 9 9 9 9 8 8 7 8 8 8 8 8 8 8 8 8 8 8 7 7 7 7 7 6 6 5 5 5 4 4 4 2 1 1 1 1 3 2 2 3 4 4 7 8 9 9 9 9 9 9 10 10 10 11 11
12 12 13 13 12 12 11 11 10 10 10 9 8 8 7 8 8 9 9 9 9 9 8 8 8 7 7 7 7 7 8 8 7 7 7 7 6 5 5 4 4 3 3 3 2 1 2 4 4 4 7 8 7 8 8 8 9 10 10 9 9 10 10
11 11 12 12 12 12 11 11 11 10 10 9 9 8 8 8 9 10 10 10 10 9 8 8 8 7 7 7 8 8 8 8 8 7 7 7 6 6 5 5 5 5 5 5 4 2 2 3 4 4 5 6 6 7 7 7 7 8 9 9 9 9 10
11 10 11 12 12 12 12 12 11 11 11 10 9 8 8 9 10 10 10 11 10 10 9 7 7 7 7 7 8 8 8 7 7 7 7 7 7 7 6 6 6 6 6 5 4 3 2 1 3 4 4 4 4 4 5 6 6 7 7 8 9 9 9
10 10 10 12 13 13 14 13 12 12 12 12 11 10 9 9 10 11 11 11 10 10 9 8 7 7 7 7 7 7 7 7 7 7 7 7 7 7 6 6 6 6 6 6 5 5 4 2 2 4 4 3 2 3 4 4 5 6 5 6 8 8 8
11 11 12 12 13 13 14 13 13 14 14 14 12 11 10 9 10 10 10 10 10 10 9 9 8 8 7 8 7 7 7 7 7 7 7 7 7 6 6 6 6 7 7 6 6 6 5 4 2 2 2 2 2 1 3 3 3 5 5 5 6 7 7
11 12 13 14 13 12 13 13 13 13 15 16 14 12 11 10 10 9 10 10 9 9 9 9 9 8 8 8 7 7 7 6 7 7 6 6 6 6 6 6 6 6 6 6 6 6 6 5 3 1 1 2 2 2 1 3 3 4 5 5 6 6 6
12 13 14 15 13 11 12 15 13 11 13 16 15 13 12 11 10 9 9 9 9 9 9 8 8 8 7 7 7 6 6 6 6 6 6 6 6 6 6 6 6 6 6 5 6 6 5 5 4 2 1 0 1 3 1 2 3 4 4 5 6 6 6
12 13 14 14 13 10 11 14 12 10 11 13 14 14 13 11 11 10 9 9 9 9 8 8 8 7 7 6 6 6 5 5 5 5 5 5 5 4 4 5 5 4 4 4 5 5 5 5 5 4 4 3 3 2 1 2 5 5 5 4 5 5 5
11 12 14 14 12 11 11 11 10 9 9 11 13 14 14 12 11 10 10 10 9 9 8 8 7 7 7 7 6 6 5 4 4 4 4 4 3 3 3 4 4 4 3 3 3 3 4 4 4 4 4 4 4 3 2 3 6 7 5 4 4 4 3
10 11 13 14 13 12 11 11 10 9 9 10 12 13 14 13 12 11 11 10 9 9 8 8 7 6 7 7 6 6 5 4 4 4 3 2 2 2 2 2 3 3 2 2 2 2 3 3 3 4 4 4 5 4 3 3 5 6 6 5 4 4 3
9 10 12 13 13 13 13 12 11 10 9 10 11 12 13 14 13 12 12 11 10 9 8 8 7 7 6 6 6 5 5 4 4 4 3 2 2 2 1 1 2 2 2 2 1 2 2 2 2 4 5 5 5 5 4 3 4 5 6 5 4 4 3
9 10 11 13 13 13 13 13 12 11 10 9 10 11 13 14 14 13 12 12 12 10 9 8 7 7 6 5 5 5 5 4 3 3 2 2 1 1 1 1 1 1 1 1 1 1 2 2 2 4 4 4 5 5 5 4 3 4 5 5 3 2 2
10 10 10 11 13 13 12 12 13 12 11 10 11 11 12 13 13 13 13 13 13 12 11 10 8 7 6 5 5 5 5 4 3 3 3 2 2 2 2 2 2 1 1 1 2 1 1 1 1 2 2 3 4 4 4 3 3 3 3 4 3 2 1
10 10 9 10 12 13 12 12 13 12 12 12 12 12 12 13 13 13 13 13 13 13 12 11 10 8 7 6 6 5 6 5 5 5 5 5 5 4 4 4 4 3 3 3 2 1 1 1 0 0 0 1 2 3 3 3 3 2 2 3 3 2 1
11 11 10 9 10 12 12 13 13 13 13 14 14 13 13 13 13 12 12 12 12 12 12 12 11 9 8 7 6 6 6 7 7 7 7 6 6 7 8 7 7 7 7 6 4 3 2 2 0 1 1 1 1 2 2 2 2 2 2 2 1 1 1
10 10 11 11 11 11 12 13 14 14 14 15 15 14 13 13 12 12 11 11 11 11 11 10 10 9 8 8 7 6 7 7 7 7 8 7 8 9 10 10 10 11 11 10 9 8 8 8 7 5 4 2 2 2 2 2 2 2 2 2 1 1 1
7 8 9 11 11 12 13 14 14 14 14 14 13 13 13 12 12 12 11 10 10 11 10 10 9 9 8 8 8 7 7 7 7 7 7 8 8 9 11 11 12 14 14 13 12 12 13 12 10 9 8 7 5 5 4 3 3 3 3 3 3 2 3
5 6 7 8 9 10 11 12 12 13 13 12 12 11 11 11 11 11 11 10 10 10 9 10 11 11 9 9 9 8 7 7 7 7 7 8 8 9 10 10 12 14 15 15 15 14 14 12 10 10 9 8 7 5 4 4 5 4 4 4 3 3 4
3 4 5 6 7 8 9 10 10 11 11 11 11 10 10 10 9 9 9 9 8 8 8 10 13 14 12 12 10 8 7 7 6 6 7 7 7 8 8 8 8 10 12 14 15 15 14 13 12 12 12 10 9 9 7 6 4 2 2 3 2 2 4
2 3 4 5 6 7 7 8 8 8 9 10 10 8 7 7 6 6 7 8 8 8 8 10 12 12 12 12 11 10 7 6 6 5 6 6 6 6 6 7 7 7 8 10 12 12 14 15 15 15 14 12 12 11 10 9 6 2 1 1 1 3 3
1 1 3 4 5 5 6 6 6 6 7 8 8 7 6 5 6 8 9 10 10 9 10 12 12 11 12 12 11 10 7 5 5 4 4 4 5 5 5 6 7 6 7 7 8 8 11 14 17 18 16 14 13 12 11 10 7 5 3 2 1 3 2
1 0 1 3 5 6 6 6 6 7 8 9 9 9 8 7 9 11 10 10 9 8 11 12 11 11 11 11 11 10 7 5 4 3 2 2 3 3 4 5 5 5 6 6 7 8 10 13 18 20 16 14 14 12 10 8 7 6 4 2 2 3 2
1 0 1 2 4 5 6 6 7 8 9 10 9 8 7 8 9 10 9 9 8 8 11 11 11 12 12 12 12 10 7 4 3 3 2 1 1 2 2 3 4 5 5 5 7 9 10 12 17 18 15 13 13 13 11 8 6 5 4 2 2 2 2
1 0 1 2 4 5 5 6 7 8 8 8 8 9 8 8 9 9 8 9 10 10 10 11 12 13 13 13 12 9 6 5 4 4 3 2 1 1 0 1 2 3 3 5 8 9 11 12 15 16 14 12 12 11 10 8 5 5 5 5 6 6 7
3 3 3 4 5 5 6 7 7 8 9 9 9 10 10 9 10 11 10 10 10 8 8 11 13 13 13 13 12 8 6 6 5 4 4 3 3 2 2 2 2 1 2 5 7 9 12 13 13 13 12 11 10 8 7 7 6 6 7 8 9 10 11
5 5 6 7 6 6 6 7 8 9 10 10 11 11 12 12 11 11 10 9 8 6 7 10 12 13 13 14 13 9 7 7 6 5 5 5 4 3 3 3 4 4 4 5 6 9 13 12 10 10 10 9 8 7 6 6 6 7 8 9 9 11 12
6 6 6 7 7 6 6 7 9 10 10 10 11 11 11 11 11 10 9 9 8 7 6 8 10 11 12 13 13 10 7 6 7 6 6 7 6 6 5 5 6 6 4 4 6 10 13 11 7 8 8 7 6 5 4 4 4 4 5 7 8 9 11
7 7 7 6 6 6 6 7 9 11 10 10 11 12 11 11 11 11 11 11 10 8 7 7 8 9 10 11 13 11 8 7 7 7 7 8 8 8 7 7 7 6 5 6 8 10 13 11 7 6 5 4 4 4 3 3 4 4 4 6 7 8 9
8 8 9 8 8 7 8 8 9 11 11 11 12 13 13 12 12 12 12 11 11 10 9 9 8 9 10 10 12 13 9 7 8 8 8 8 8 8 9 8 8 7 6 7 8 9 10 9 6 5 3 3 4 4 2 2 5 7 6 7 8 9 9
9 9 9 9 9 10 10 11 11 12 12 12 12 12 12 12 12 12 11 10 10 10 10 10 9 10 10 10 12 13 10 8 9 9 8 8 8 9 9 10 10 9 8 8 8 7 6 6 5 4 3 3 4 4 3 2 4 6 6 7 8 9 9
10 10 10 10 11 12 12 13 13 14 14 13 13 13 14 13 12 11 11 10 10 12 12 11 10 11 11 11 13 14 13 12 12 10 8 9 9 10 11 12 12 11 9 8 7 6 5 4 4 3 3 3 3 3 2 2 4 5 6 7 8 9 9
12 11 11 10 11 12 13 15 16 17 16 17 16 15 15 15 14 13 12 12 12 12 13 12 12 12 12 12 13 14 14 14 14 10 8 8 10 11 12 14 14 12 10 8 7 6 4 3 2 2 1 1 3 3 1 3 4 5 6 7 8 8 9
Wind_Direction
140 137 137 133 131 130 129 124 120 115 106 101 98 89 83 81 82 85 87 90 88 86 82 76 72 66 64 62 55 69 56 157 177 226 217 202 213 197 194 209 218 244 263 267 232 179 219 193 134 113 83 76 71 67 63 61 62 54 43 39 56 78 79
137 138 136 133 133 133 131 124 118 114 109 105 99 90 81 74 74 76 81 84 77 70 68 62 60 55 50 54 52 53 43 46 83 199 192 195 218 197 186 194 201 212 218 233 222 212 243 248 137 127 109 93 75 66 67 69 66 63 60 59 65 71 71
138 138 135 135 137 135 132 124 119 117 114 110 99 89 81 73 67 65 68 72 65 59 55 51 55 58 58 65 66 65 62 56 61 60 72 93 186 183 181 183 180 190 192 196 201 204 241 293 102 120 118 105 86 74 74 77 75 74 76 74 75 75 75
141 140 138 139 140 137 133 127 123 120 116 113 105 92 81 73 70 70 68 67 62 55 52 54 62 69 70 69 68 67 68 74 86 87 84 79 74 119 159 179 183 191 195 173 166 173 170 113 108 111 104 98 94 88 83 84 85 84 83 80 79 78 78
144 142 141 142 142 138 136 131 128 127 122 117 109 96 80 75 78 78 75 71 64 56 57 63 68 71 71 67 63 59 58 61 70 77 77 77 80 100 120 130 123 125 135 123 138 158 150 134 137 127 115 107 99 97 97 96 93 86 82 81 80 80 81
144 143 142 141 142 139 137 137 134 133 130 123 114 101 83 80 82 81 78 72 67 63 65 68 68 65 62 62 63 61 60 58 58 63 63 61 62 70 79 76 67 69 62 53 63 110 133 138 146 134 120 116 114 120 124 117 104 91 82 78 79 79 79
143 142 143 141 142 140 139 140 137 135 134 127 119 106 93 89 88 85 83 79 76 73 74 72 68 62 56 61 67 64 62 60 58 61 60 56 53 50 52 59 59 56 52 45 34 44 127 147 153 145 126 121 126 134 133 125 111 96 85 76 73 77 78
142 140 142 142 144 144 142 141 137 136 136 131 124 115 107 102 97 94 91 87 84 81 81 80 76 68 61 68 72 67 64 62 62 65 65 63 58 54 54 58 67 64 56 53 45 44 66 131 152 154 148 138 134 134 130 121 104 91 87 82 72 69 75
141 140 144 147 151 151 146 142 140 139 137 134 131 126 120 116 111 107 101 96 92 89 88 86 84 82 77 78 77 71 66 63 64 68 71 73 67 63 62 59 69 70 59 57 55 50 51 60 137 162 172 177 160 145 141 130 107 91 83 82 78 68 68
150 149 150 154 158 158 150 145 145 144 140 137 138 136 132 129 123 118 111 105 100 96 94 92 91 92 89 89 86 79 72 67 69 69 71 74 70 67 66 63 69 71 61 58 58 56 58 61 106 177 217 251 256 203 161 143 116 98 79 65 73 74 70
165 160 160 161 164 165 158 152 152 152 145 140 142 143 140 138 133 126 119 113 108 104 101 98 98 98 96 97 95 90 85 79 77 75 73 73 70 67 65 62 65 65 59 57 58 59 61 62 80 147 241 277 295 302 181 137 108 88 82 69 64 68 74
171 167 168 167 168 173 168 159 157 159 150 142 143 146 144 143 141 135 129 123 119 115 110 106 104 102 101 102 101 98 95 92 90 88 84 79 74 72 68 62 62 62 60 61 61 60 60 59 67 82 84 74 3 350 357 140 124 88 78 82 76 67 70
175 172 172 171 172 173 170 164 162 164 156 148 148 149 147 147 146 143 140 136 133 129 123 119 116 113 110 109 107 104 102 102 100 96 97 94 88 86 81 73 71 70 67 71 72 67 63 58 56 67 76 79 84 59 20 100 114 106 91 92 98 88 81
178 176 174 173 173 171 170 170 171 171 163 156 156 152 149 149 150 148 146 143 141 140 135 131 128 125 123 119 116 113 114 115 108 102 104 108 104 97 96 93 87 83 80 85 94 91 84 80 73 76 80 83 89 88 79 105 118 124 119 113 117 109 105
183 180 176 175 174 172 173 174 178 180 173 167 164 157 152 151 152 152 150 147 146 145 143 141 138 135 134 130 129 128 126 125 118 111 112 122 119 105 102 110 106 101 98 104 115 105 97 98 96 91 82 82 88 78 69 104 124 132 132 137 145 131 117
190 184 182 181 178 175 177 179 180 182 180 174 169 163 157 156 157 157 153 149 149 149 149 148 146 145 144 143 144 141 137 134 130 127 131 146 147 129 122 120 110 113 122 132 135 109 107 101 90 96 88 81 87 82 72 84 111 130 136 144 162 154 131
196 192 189 188 185 180 181 185 185 184 185 181 176 171 165 161 162 163 160 158 157 156 156 154 153 151 150 152 154 151 150 152 154 158 156 157 158 170 238 235 169 160 170 172 187 169 147 137 110 112 114 108 108 105 99 98 103 126 140 145 155 153 141
204 199 196 195 193 187 184 188 190 191 191 189 184 180 174 170 171 172 171 170 166 164 163 161 160 159 160 165 169 171 173 174 180 188 187 195 218 241 266 270 257 226 235 239 232 217 181 169 147 138 135 128 124 119 115 113 111 126 147 143 144 147 148
204 198 198 201 199 196 196 197 197 197 197 198 196 192 187 183 182 183 183 181 177 173 172 172 173 172 174 183 191 198 201 206 212 210 208 214 219 225 233 245 254 248 240 246 257 265 278 287 346 61 143 135 117 115 119 125 122 127 143 139 146 160 150
203 201 203 206 206 208 210 211 209 205 202 203 203 202 201 198 195 194 193 192 190 183 178 180 180 179 183 191 202 214 221 229 229 221 217 217 219 229 234 232 236 237 231 229 229 230 229 207 117 5 326 329 89 121 132 140 141 143 154 169 184 181 157
204 207 210 213 217 223 227 228 223 215 209 207 208 209 210 209 205 203 199 196 195 188 184 188 191 193 198 199 204 216 224 226 224 221 224 225 225 232 234 229 226 228 232 234 224 212 215 214 201 203 218 214 196 198 189 183 202 205 195 204 235 240 224
195 206 211 216 219 224 230 230 226 220 214 210 211 212 214 216 215 212 207 201 196 192 191 192 193 198 201 200 203 211 215 215 218 222 226 229 228 229 230 228 224 223 231 242 235 223 228 231 213 200 208 210 204 209 211 217 233 241 238 245 261 270 277
183 199 209 217 219 221 222 221 220 221 219 216 217 217 217 220 220 219 216 209 201 198 199 207 217 223 216 203 200 204 208 212 217 223 228 233 235 232 232 232 228 229 237 246 244 237 236 235 218 207 216 217 207 205 221 242 247 249 260 275 283 294 302
179 195 205 214 220 224 222 216 218 222 222 223 224 222 222 221 221 224 225 223 221 219 221 232 241 238 223 209 203 202 210 215 214 221 228 232 235 235 237 236 231 233 238 240 239 238 238 232 220 217 223 220 213 212 217 233 243 248 276 291 298 309 314
193 207 212 216 219 223 223 219 220 222 226 231 232 231 229 220 216 224 229 235 242 243 241 239 234 226 218 215 208 201 203 206 203 212 223 228 234 234 234 232 222 216 221 227 230 232 234 229 218 217 222 219 219 218 209 207 210 205 241 281 300 300 309
177 215 222 222 221 220 222 222 221 221 228 231 230 235 238 220 219 233 239 242 244 242 239 236 227 221 221 217 202 188 185 189 193 207 219 227 238 237 230 227 218 207 210 224 224 217 222 221 212 211 215 214 214 212 203 205 215 225 224 201 256 284 297
93 143 206 219 222 222 223 218 210 214 226 232 231 236 240 229 229 239 247 250 245 233 230 231 225 216 209 197 183 173 169 176 190 200 209 228 253 259 254 247 239 223 212 216 212 203 210 215 207 203 203 202 203 203 203 211 221 230 229 213 259 293 310
56 88 206 218 223 226 223 213 208 216 227 230 226 221 218 213 217 230 243 246 234 223 222 217 204 193 186 177 169 163 159 168 179 173 164 176 249 262 263 257 256 245 221 216 216 205 201 202 195 189 184 184 192 200 207 212 216 225 230 217 241 272 267
16 183 205 219 224 225 219 209 206 208 209 206 197 189 191 198 205 214 227 229 219 215 211 195 182 181 179 173 169 166 164 169 165 148 136 122 112 136 161 215 244 244 213 218 224 204 186 181 180 178 176 176 184 199 210 216 226 241 247 247 250 255 260
274 256 250 247 240 234 224 213 203 193 188 186 180 175 176 180 182 182 188 199 201 198 192 184 181 183 184 180 178 179 181 179 167 150 142 127 110 127 155 149 150 135 163 207 217 193 176 174 175 176 178 174 174 184 205 224 241 249 253 258 263 266 270
290 280 269 260 257 248 226 208 193 182 177 173 169 166 164 163 164 164 167 178 186 180 179 184 185 187 190 188 186 189 195 187 172 158 149 137 118 123 147 145 131 121 147 183 185 171 169 173 176 179 181 182 178 175 192 224 247 259 263 270 275 278 281
300 292 278 268 266 253 221 193 181 177 177 174 168 166 166 164 161 159 159 165 168 164 173 188 191 192 195 196 193 197 209 200 183 175 163 146 127 120 125 133 134 125 120 138 147 154 160 166 181 191 194 200 196 182 184 210 230 256 272 283 287 286 289
302 298 289 282 273 252 224 201 188 185 190 190 180 175 174 171 163 157 157 158 156 155 164 181 191 197 202 204 200 201 212 211 192 183 172 155 139 127 122 124 131 124 114 124 138 151 160 163 167 172 180 195 192 178 179 213 246 267 273 278 279 277 279
308 302 294 287 276 258 240 228 212 203 205 202 190 184 181 176 169 164 161 159 158 158 161 164 174 186 195 204 203 201 208 214 199 188 179 168 155 138 127 127 133 131 125 134 143 155 169 176 172 163 171 195 202 205 203 230 279 289 282 274 274 275 276
306 302 295 288 278 265 251 241 230 221 218 211 199 190 186 182 176 168 163 160 160 163 166 164 166 173 179 190 196 193 194 198 192 186 182 174 160 143 134 137 141 140 138 143 150 157 171 183 192 201 214 219 229 251 264 254 276 287 281 275 278 280 281
294 291 288 286 279 268 257 245 234 226 222 217 207 197 191 189 185 176 170 168 171 174 176 174 171 171 174 179 183 185 187 186 181 180 187 183 162 140 141 150 152 150 150 152 154 158 171 189 201 206 209 224 257 297 307 262 262 274 278 280 283 284 284
280 277 277 276 273 266 257 247 238 230 225 220 213 207 201 195 194 193 185 178 180 182 180 177 176 173 172 172 175 181 185 180 173 172 178 172 154 143 151 159 159 156 159 163 163 165 175 184 188 181 193 327 345 360 319 258 265 277 281 282 283 285 289
Height
823 826 828 829 831 832 832 833 833 834 834 835 835 836 836 836 836 836 836 836 837 837 837 837 837 838 838 838 838 837 838 838 838 838 838 838 838 839 840 841 841 841 841 841 841 843 846 845 845 846 847 847 847 847 847 848 848 848 849 848 849 849 849
823 825 827 829 831 832 833 833 833 834 834 835 835 836 836 836 836 837 837 837 837 837 838 838 838 839 839 839 838 838 839 839 839 839 838 839 838 838 839 840 841 841 841 841 841 842 842 840 840 844 846 847 847 848 849 848 848 849 850 850 851 851 851
823 825 827 829 830 832 833 833 833 834 834 835 836 836 837 837 837 837 837 837 838 838 839 839 839 839 839 839 839 840 840 840 840 840 839 839 839 839 839 840 840 840 840 840 840 840 840 837 838 841 844 845 847 849 850 850 850 851 851 851 852 852 853
823 824 826 828 830 831 832 833 833 834 835 835 836 837 837 837 838 838 838 838 839 839 839 839 840 840 840 841 841 841 841 841 841 840 840 840 840 840 840 840 840 840 839 839 839 840 839 839 839 841 844 846 848 850 851 852 852 852 852 853 853 854 854
822 824 825 827 829 830 832 833 833 834 835 836 837 837 838 838 838 838 839 839 840 840 840 841 841 841 842 842 842 842 842 842 842 841 841 841 841 841 841 841 841 840 840 840 840 840 840 841 841 841 844 847 849 851 852 853 853 853 853 854 854 855 855
822 824 825 827 828 830 831 832 833 834 835 836 837 838 838 839 839 839 839 840 840 841 842 842 842 843 843 843 843 844 844 844 843 843 843 843 843 843 842 842 842 842 842 842 842 842 842 842 842 842 843 846 849 850 852 852 853 854 854 855 855 856 856
823 824 825 827 828 829 831 832 833 834 836 837 838 838 839 839 840 840 840 840 841 842 843 843 844 844 844 844 845 845 845 845 845 845 845 845 845 845 844 844 844 844 844 844 844 844 844 844 844 844 845 846 848 848 849 851 852 853 855 856 857 857 858
823 824 826 827 828 829 830 832 833 834 836 837 838 839 840 840 840 841 841 842 842 843 844 844 845 845 846 846 846 846 847 847 847 847 847 847 847 846 846 846 846 846 846 846 846 845 845 846 846 846 846 847 848 848 848 850 852 854 856 857 858 858 859
822 824 826 827 828 829 830 831 833 834 835 837 838 839 840 841 841 842 842 843 843 844 845 845 846 846 847 847 848 848 848 848 848 848 848 848 849 848 848 848 848 848 848 848 848 847 847 847 847 848 848 847 848 849 850 851 852 855 857 857 858 860 860
822 824 826 827 829 830 830 831 833 834 834 836 838 839 840 841 842 842 843 844 844 845 845 846 847 847 848 848 849 849 849 850 850 850 850 850 850 850 850 850 849 849 849 849 849 849 849 849 849 849 849 848 847 847 849 851 853 855 857 858 859 860 861
822 824 825 827 829 831 831 831 833 834 834 835 837 839 840 841 842 843 844 844 845 846 846 847 848 848 849 849 850 850 850 851 851 851 851 851 851 852 851 851 851 851 851 851 851 851 851 851 851 851 851 850 849 848 847 850 854 857 858 860 860 861 862
822 824 825 827 829 831 832 831 832 834 834 834 836 838 839 841 842 843 844 845 846 847 847 848 848 849 850 850 851 851 851 852 852 852 852 852 852 853 853 853 853 853 853 852 852 852 852 852 852 852 852 852 852 851 849 849 853 858 860 860 861 862 862
822 824 825 827 829 831 832 832 833 834 834 835 836 837 839 840 842 843 844 845 846 847 847 848 849 849 850 851 851 852 852 852 853 853 853 853 853 854 854 854 854 854 854 854 854 854 854 854 853 853 853 853 853 853 852 851 853 858 861 861 862 862 862
822 823 825 827 828 830 832 833 834 834 834 835 836 837 838 840 841 843 844 845 846 847 847 848 848 849 850 851 851 852 852 853 853 854 854 854 854 854 854 855 855 855 855 855 855 855 855 855 855 854 854 854 854 854 854 853 855 858 861 861 862 862 862
821 823 824 826 828 830 832 833 833 834 834 835 836 836 837 839 840 842 842 844 845 846 847 847 848 849 850 850 851 851 852 852 853 853 854 854 855 855 855 855 855 856 856 856 856 856 856 856 855 855 855 855 855 856 855 855 856 858 860 861 862 862 862
820 822 823 825 827 829 831 832 833 834 834 835 835 836 836 837 839 840 841 842 843 845 846 847 847 848 849 850 850 851 851 852 852 853 853 854 854 855 855 856 856 856 856 857 857 857 857 856 856 856 857 856 856 857 857 856 857 858 859 861 861 861 862
820 822 823 825 826 828 830 831 832 833 834 834 835 836 836 836 837 839 840 840 841 843 844 845 846 847 848 849 849 850 851 851 852 852 852 853 853 854 855 855 856 856 856 857 857 857 857 857 857 857 857 857 857 857 858 857 857 858 859 860 861 861 861
820 821 823 824 826 827 829 830 831 831 832 833 834 835 835 835 836 837 838 838 839 840 842 843 845 846 847 848 848 849 850 850 851 851 852 852 853 853 855 855 856 856 857 857 857 858 858 858 858 858 857 857 857 858 858 858 858 858 858 859 860 861 861
820 821 822 824 825 826 827 828 829 830 831 832 833 834 834 834 835 836 837 838 838 838 839 841 842 844 845 846 847 848 848 848 849 850 851 851 852 852 854 855 855 856 856 857 857 858 859 859 859 859 858 858 858 859 859 859 859 859 859 859 860 861 861
819 820 822 823 824 825 826 827 827 828 829 830 831 832 833 834 834 835 836 837 838 838 838 839 841 842 843 844 846 846 847 847 847 848 849 850 850 851 852 853 854 855 855 856 856 857 858 859 859 860 860 859 859 860 859 859 859 859 859 859 859 860 860
818 820 821 822 823 824 825 825 826 827 828 829 830 831 832 833 833 834 835 836 837 837 838 839 839 841 841 842 843 844 845 846 846 847 848 848 849 850 851 852 852 853 853 854 855 856 857 858 858 859 860 860 860 860 860 860 860 859 859 858 859 859 860
817 819 819 820 821 822 823 824 824 825 826 827 828 829 830 831 832 833 834 835 835 836 836 838 838 839 840 840 841 842 843 844 845 845 846 847 848 849 849 850 851 851 851 852 853 854 855 856 857 858 859 859 859 859 859 860 859 858 858 857 857 858 858
817 818 818 819 820 821 822 822 823 824 825 826 827 828 829 830 831 832 833 833 834 834 835 836 836 837 838 839 839 840 842 842 843 844 844 845 846 847 848 848 849 849 850 850 851 852 853 855 855 857 857 858 858 859 859 860 859 858 857 856 856 858 857
817 817 818 818 819 819 820 821 822 823 824 825 826 827 828 829 830 831 832 832 833 834 834 834 834 835 836 836 838 838 840 840 841 842 843 843 844 845 846 847 847 847 848 848 849 850 851 853 854 855 856 856 857 858 859 860 859 859 858 857 858 858 858
816 817 817 817 818 818 819 820 821 822 823 824 825 826 827 828 829 830 830 831 831 832 833 832 832 833 834 834 836 836 837 838 839 840 841 841 843 843 844 845 846 846 847 847 848 848 849 850 852 853 854 855 856 857 858 858 859 859 859 858 859 858 858
816 816 817 817 818 818 819 819 820 821 822 822 824 825 827 828 829 829 829 828 829 830 831 831 830 832 832 833 834 835 836 837 837 838 839 840 841 842 843 844 844 845 845 845 846 847 847 848 850 851 853 854 855 856 857 857 858 858 858 858 859 858 858
816 816 816 817 817 817 818 819 819 820 821 821 822 823 825 827 827 827 827 827 828 829 829 829 829 830 831 832 833 834 835 836 836 837 838 839 840 841 841 842 842 843 844 844 845 846 846 846 848 850 852 853 854 856 856 856 857 857 857 857 858 858 858
816 815 816 816 816 817 817 818 818 819 819 820 820 821 822 824 824 824 825 827 827 828 828 827 828 829 830 831 832 833 834 835 836 837 837 838 839 840 840 841 841 842 843 843 844 845 845 845 846 849 851 852 854 854 855 855 856 856 856 856 857 857 857
816 816 816 816 816 816 817 817 817 817 817 818 818 819 820 820 820 821 824 827 828 828 827 827 827 829 830 831 832 832 834 834 835 836 837 838 839 839 839 840 840 841 842 842 842 843 845 845 846 849 851 851 852 853 854 854 855 855 855 855 856 856 855
816 816 816 816 816 816 816 816 816 816 816 816 817 817 818 819 820 821 824 826 827 827 826 826 827 828 829 830 831 832 833 833 834 835 836 837 838 838 838 839 839 840 841 841 841 842 844 845 847 848 850 851 852 853 853 853 853 854 854 854 854 854 853
816 816 815 815 815 815 815 815 816 816 816 816 816 817 818 819 820 821 823 824 825 826 826 826 827 828 829 830 831 831 832 832 833 835 836 836 837 837 837 838 839 840 840 840 841 842 843 845 847 848 849 850 851 852 852 852 852 852 852 852 852 851 851
817 816 815 815 815 815 815 815 815 816 816 816 817 817 818 819 820 821 821 822 823 825 826 826 827 828 828 829 829 830 830 831 832 834 835 836 837 837 837 838 839 840 840 840 841 842 843 845 846 847 848 849 850 850 851 851 852 852 851 851 851 850 849
816 816 815 815 814 815 815 814 815 815 815 816 816 817 818 818 819 820 821 821 822 824 825 825 826 826 827 827 828 829 829 830 831 833 834 835 836 837 838 838 839 840 840 840 841 842 843 844 845 847 848 848 849 849 850 850 850 850 851 851 850 849 849
816 815 815 815 814 814 814 814 814 814 815 815 815 816 817 817 818 820 820 821 822 822 823 824 825 825 825 826 827 828 829 829 830 832 833 834 835 837 838 839 839 840 840 841 841 842 843 844 845 846 847 847 848 848 849 849 849 849 849 849 848 848 847
815 814 814 814 814 813 813 813 813 814 814 814 814 815 816 816 817 818 819 821 821 822 822 823 823 823 824 824 825 827 828 828 829 831 832 833 834 836 837 838 839 840 840 841 842 842 843 844 845 845 846 846 847 847 848 849 849 848 848 848 847 846 846
814 813 813 812 812 812 812 812 812 812 813 813 814 814 814 815 816 817 818 819 820 820 821 821 822 822 823 823 824 825 827 828 829 830 831 832 834 836 837 837 838 839 840 841 841 842 843 844 845 845 846 846 847 847 847 848 848 848 847 847 846 845 844
812 811 811 811 810 810 810 810 810 810 810 811 811 812 812 813 814 814 815 817 818 819 820 820 820 821 821 822 823 824 825 827 828 830 831 832 834 835 835 836 837 839 840 841 841 842 843 844 844 845 846 846 846 846 847 847 847 846 846 845 844 844 843